DLH8P EDDM-KBOS

Flight info

Callsign DLH8P
Flight time 7h 7m
Altitude 36000
Route GIVMI6Q/08L GIVMI Y101 INBED DCT REKDI DCT LOHRE DCT BUB L608 DENUT L610 KOPUL Q60 OKSAW DCT BIBPE DCT FELCA DCT OFSOX DCT SLANY DCT OLGON DCT NEBIN/M081F360 DCT 5330N02000W 5230N03000W 5130N04000W 5030N05000W DCT BUDAR/N0464F360 N436B ALLEX DCT AJJAY OOSHN5
Aircraft A388/J-SADE2E3GHIJ3J4J5LM1OP2RWXYZ/LB1D1

Departure

Time 2026-05-01 07:30
Airport Munich Airport (EDDM)

Arrival

Time 2026-05-01 14:37
Airport Boston Logan International Airport (KBOS)
Time Latitude Longitude Altitude Speed Heading
2026-05-01 07:23 48.35302 11.79482 1476 ft 15 kts 353°
2026-05-01 07:23 48.35518 11.79442 1477 ft 17 kts 353°
2026-05-01 07:24 48.35637 11.79420 1478 ft 18 kts 353°
2026-05-01 07:24 48.35761 11.79399 1487 ft 18 kts 353°
2026-05-01 07:24 48.35890 11.79366 1479 ft 19 kts 347°
2026-05-01 07:24 48.36022 11.79329 1487 ft 20 kts 352°
2026-05-01 07:25 48.36070 11.79312 1475 ft 6 kts 327°
2026-05-01 07:25 48.36088 11.79247 1481 ft 9 kts 269°
2026-05-01 07:25 48.36078 11.79115 1476 ft 16 kts 263°
2026-05-01 07:25 48.36062 11.78924 1478 ft 20 kts 263°
2026-05-01 07:26 48.36044 11.78699 1487 ft 23 kts 263°
2026-05-01 07:26 48.36026 11.78447 1482 ft 25 kts 263°
2026-05-01 07:26 48.36005 11.78176 1475 ft 27 kts 263°
2026-05-01 07:26 48.35984 11.77886 1480 ft 29 kts 263°
2026-05-01 07:27 48.35960 11.77581 1479 ft 30 kts 263°
2026-05-01 07:27 48.35936 11.77268 1480 ft 30 kts 263°
2026-05-01 07:27 48.35919 11.77047 1476 ft 9 kts 263°
2026-05-01 07:27 48.35917 11.76933 1485 ft 12 kts 285°
2026-05-01 07:28 48.35980 11.76836 1475 ft 14 kts 340°
2026-05-01 07:28 48.36084 11.76807 1475 ft 16 kts 353°
2026-05-01 07:28 48.36197 11.76789 1476 ft 17 kts 356°
2026-05-01 07:28 48.36261 11.76794 1485 ft 6 kts 30°
2026-05-01 07:29 48.36283 11.76843 1482 ft 6 kts 77°
2026-05-01 07:29 48.36295 11.77001 1477 ft 41 kts 84°
2026-05-01 07:29 48.36359 11.77860 1487 ft 119 kts 83°
2026-05-01 07:29 48.36481 11.79376 1504 ft 167 kts 84°
2026-05-01 07:30 48.36627 11.81139 2008 ft 168 kts 83°
2026-05-01 07:30 48.36767 11.82851 2708 ft 166 kts 85°
2026-05-01 07:30 48.36897 11.84575 3317 ft 166 kts 85°
2026-05-01 07:30 48.37029 11.86347 3708 ft 172 kts 86°
2026-05-01 07:31 48.37164 11.88191 3991 ft 181 kts 85°
2026-05-01 07:31 48.38182 11.94506 5137 ft 242 kts 52°
2026-05-01 07:32 48.41365 11.96581 6447 ft 272 kts
2026-05-01 07:32 48.43221 11.95876 7154 ft 282 kts 335°
2026-05-01 07:33 48.45762 11.91381 8606 ft 298 kts 293°
2026-05-01 07:33 48.46450 11.88361 9163 ft 308 kts 290°
2026-05-01 07:33 48.47847 11.82273 10725 ft 308 kts 297°
2026-05-01 07:34 48.48903 11.79373 11048 ft 322 kts 305°
2026-05-01 07:34 48.51735 11.73768 11650 ft 349 kts 311°
2026-05-01 07:34 48.53262 11.70881 12253 ft 352 kts 310°
2026-05-01 07:35 48.54754 11.67977 12860 ft 355 kts 312°
2026-05-01 07:35 48.56501 11.65342 13432 ft 356 kts 320°
2026-05-01 07:35 48.58329 11.62762 14064 ft 359 kts 320°
2026-05-01 07:35 48.60160 11.60182 14628 ft 362 kts 320°
2026-05-01 07:36 48.62014 11.57589 15195 ft 364 kts 321°
2026-05-01 07:36 48.63885 11.54988 15747 ft 367 kts 321°
2026-05-01 07:36 48.65751 11.52401 16287 ft 369 kts 321°
2026-05-01 07:36 48.67660 11.49754 16817 ft 372 kts 321°
2026-05-01 07:37 48.71514 11.44400 17874 ft 378 kts 321°
2026-05-01 07:37 48.73434 11.41726 18388 ft 381 kts 321°
2026-05-01 07:37 48.75392 11.38997 18848 ft 384 kts 321°
2026-05-01 07:38 48.77374 11.36233 19271 ft 386 kts 321°
2026-05-01 07:38 48.79364 11.33449 19739 ft 388 kts 321°
2026-05-01 07:38 48.83358 11.27857 20623 ft 392 kts 321°
2026-05-01 07:39 48.85340 11.25077 21064 ft 394 kts 321°
2026-05-01 07:39 48.87362 11.22241 21503 ft 396 kts 321°
2026-05-01 07:39 48.91445 11.16500 22355 ft 401 kts 321°
2026-05-01 07:40 48.93496 11.13611 22794 ft 403 kts 321°
2026-05-01 07:40 48.95536 11.10734 23214 ft 405 kts 321°
2026-05-01 07:40 48.97612 11.07803 23631 ft 407 kts 321°
2026-05-01 07:40 48.99697 11.04856 24019 ft 409 kts 320°
2026-05-01 07:41 49.01786 11.01900 24378 ft 410 kts 320°
2026-05-01 07:41 49.03886 10.98923 24744 ft 412 kts 320°
2026-05-01 07:41 49.08074 10.92977 25492 ft 415 kts 320°
2026-05-01 07:42 49.10190 10.89966 25862 ft 417 kts 320°
2026-05-01 07:42 49.12329 10.86922 26253 ft 419 kts 320°
2026-05-01 07:42 49.14465 10.83875 26666 ft 421 kts 320°
2026-05-01 07:42 49.16609 10.80814 27088 ft 423 kts 320°
2026-05-01 07:43 49.18771 10.77724 27496 ft 425 kts 320°
2026-05-01 07:43 49.20909 10.74665 27926 ft 427 kts 320°
2026-05-01 07:43 49.25276 10.68405 28728 ft 432 kts 320°
2026-05-01 07:44 49.29662 10.62102 29583 ft 437 kts 320°
2026-05-01 07:44 49.34119 10.55678 30467 ft 441 kts 320°
2026-05-01 07:45 49.36369 10.52428 30834 ft 444 kts 320°
2026-05-01 07:45 49.38627 10.49163 31202 ft 446 kts 320°
2026-05-01 07:45 49.40864 10.45925 31568 ft 448 kts 320°
2026-05-01 07:45 49.43146 10.42617 31948 ft 450 kts 320°
2026-05-01 07:46 49.45433 10.39296 32311 ft 453 kts 320°
2026-05-01 07:46 49.47733 10.35953 32673 ft 455 kts 320°
2026-05-01 07:46 49.52331 10.29257 33364 ft 459 kts 319°
2026-05-01 07:47 49.54661 10.25857 33704 ft 461 kts 319°
2026-05-01 07:47 49.57004 10.22431 34062 ft 464 kts 319°
2026-05-01 07:47 49.59353 10.18993 34407 ft 466 kts 319°
2026-05-01 07:47 49.61684 10.15575 34711 ft 468 kts 319°
2026-05-01 07:48 49.66443 10.08584 35342 ft 472 kts 319°
2026-05-01 07:48 49.68816 10.05091 35769 ft 471 kts 319°
2026-05-01 07:48 49.71187 10.01595 36152 ft 471 kts 319°
2026-05-01 07:49 49.78440 9.90880 36349 ft 493 kts 318°
2026-05-01 07:50 49.83438 9.83461 36390 ft 494 kts 318°
2026-05-01 07:50 49.90878 9.72377 36387 ft 496 kts 318°
2026-05-01 07:51 49.95862 9.64926 36384 ft 496 kts 318°
2026-05-01 07:52 50.03276 9.53670 36386 ft 497 kts 313°
2026-05-01 07:52 50.07122 9.44697 36387 ft 501 kts 297°
2026-05-01 07:53 50.10394 9.29243 36387 ft 503 kts 288°
2026-05-01 07:53 50.12416 9.18770 36387 ft 504 kts 288°
2026-05-01 07:55 50.17368 8.92637 36394 ft 504 kts 288°
2026-05-01 07:56 50.22256 8.66399 36399 ft 504 kts 288°
2026-05-01 07:57 50.25159 8.50645 36401 ft 504 kts 288°
2026-05-01 07:58 50.28996 8.29603 36385 ft 504 kts 287°
2026-05-01 07:59 50.32798 8.08515 36390 ft 504 kts 287°
2026-05-01 08:00 50.38428 7.76830 36378 ft 505 kts 287°
2026-05-01 08:01 50.42138 7.55630 36369 ft 502 kts 287°
2026-05-01 08:02 50.44885 7.39788 36359 ft 506 kts 286°
2026-05-01 08:03 50.47331 7.25543 36365 ft 506 kts 286°
2026-05-01 08:03 50.50057 7.09529 36360 ft 506 kts 285°
2026-05-01 08:04 50.53664 6.88120 36333 ft 506 kts 285°
2026-05-01 08:05 50.56333 6.72095 36333 ft 506 kts 285°
2026-05-01 08:06 50.58987 6.56016 36317 ft 506 kts 285°
2026-05-01 08:07 50.62506 6.34460 36319 ft 508 kts 285°
2026-05-01 08:08 50.65113 6.18310 36314 ft 507 kts 284°
2026-05-01 08:09 50.68553 5.96753 36310 ft 508 kts 284°
2026-05-01 08:09 50.70267 5.85904 36311 ft 508 kts 284°
2026-05-01 08:10 50.73650 5.64284 36311 ft 508 kts 284°
2026-05-01 08:11 50.76993 5.42630 36293 ft 508 kts 283°
2026-05-01 08:12 50.79480 5.26331 36293 ft 508 kts 283°
2026-05-01 08:13 50.81940 5.10044 36290 ft 508 kts 282°
2026-05-01 08:13 50.84382 4.93705 36292 ft 508 kts 282°
2026-05-01 08:14 50.85992 4.82842 36295 ft 508 kts 282°
2026-05-01 08:14 50.87600 4.71913 36294 ft 508 kts 282°
2026-05-01 08:15 50.90214 4.55576 36295 ft 513 kts 289°
2026-05-01 08:16 50.93420 4.45556 36294 ft 515 kts 300°
2026-05-01 08:16 50.97144 4.35868 36293 ft 512 kts 300°
2026-05-01 08:17 51.00816 4.26242 36289 ft 512 kts 300°
2026-05-01 08:17 51.04519 4.16518 36293 ft 515 kts 300°
2026-05-01 08:18 51.08192 4.06836 36284 ft 515 kts 300°
2026-05-01 08:19 51.15531 3.87379 36276 ft 515 kts 300°
2026-05-01 08:19 51.19211 3.77568 36268 ft 514 kts 300°
2026-05-01 08:20 51.22587 3.67597 36267 ft 513 kts 292°
2026-05-01 08:20 51.24793 3.56788 36269 ft 511 kts 281°
2026-05-01 08:21 51.26248 3.45738 36267 ft 510 kts 281°
2026-05-01 08:21 51.27731 3.34615 36267 ft 510 kts 280°
2026-05-01 08:22 51.29158 3.23544 36266 ft 510 kts 280°
2026-05-01 08:22 51.30574 3.12419 36267 ft 510 kts 279°
2026-05-01 08:23 51.31983 3.01270 36266 ft 510 kts 279°
2026-05-01 08:23 51.33378 2.90144 36268 ft 510 kts 279°
2026-05-01 08:24 51.34760 2.79040 36260 ft 511 kts 279°
2026-05-01 08:24 51.36140 2.67869 36260 ft 511 kts 279°
2026-05-01 08:25 51.37507 2.56753 36254 ft 511 kts 279°
2026-05-01 08:25 51.38870 2.45578 36249 ft 511 kts 279°
2026-05-01 08:26 51.40218 2.34433 36248 ft 511 kts 279°
2026-05-01 08:26 51.41563 2.23226 36243 ft 511 kts 279°
2026-05-01 08:27 51.42926 2.12074 36245 ft 511 kts 279°
2026-05-01 08:27 51.44292 2.00842 36239 ft 511 kts 279°
2026-05-01 08:28 51.45615 1.89713 36248 ft 512 kts 278°
2026-05-01 08:28 51.46922 1.78474 36245 ft 512 kts 278°
2026-05-01 08:29 51.48208 1.67276 36240 ft 512 kts 278°
2026-05-01 08:29 51.49493 1.56012 36238 ft 512 kts 278°
2026-05-01 08:30 51.50760 1.44820 36238 ft 512 kts 278°
2026-05-01 08:30 51.52026 1.33538 36230 ft 512 kts 277°
2026-05-01 08:31 51.53280 1.22257 36233 ft 512 kts 277°
2026-05-01 08:31 51.54407 1.11030 36212 ft 510 kts 272°
2026-05-01 08:32 51.55115 0.99646 36214 ft 510 kts 273°
2026-05-01 08:32 51.55843 0.88284 36216 ft 511 kts 273°
2026-05-01 08:33 51.56552 0.76971 36207 ft 511 kts 272°
2026-05-01 08:33 51.57253 0.65553 36219 ft 511 kts 272°
2026-05-01 08:34 51.57935 0.54263 36209 ft 510 kts 272°
2026-05-01 08:34 51.58611 0.42878 36213 ft 512 kts 272°
2026-05-01 08:35 51.59279 0.31448 36208 ft 512 kts 272°
2026-05-01 08:35 51.59930 0.20096 36206 ft 512 kts 272°
2026-05-01 08:36 51.60575 0.08682 36210 ft 512 kts 272°
2026-05-01 08:36 51.61205 -0.02686 36217 ft 512 kts 272°
2026-05-01 08:37 51.61832 -0.14151 36206 ft 512 kts 272°
2026-05-01 08:37 51.62530 -0.25522 36211 ft 513 kts 273°
2026-05-01 08:38 51.63241 -0.36945 36185 ft 513 kts 273°
2026-05-01 08:38 51.63928 -0.48371 36184 ft 513 kts 272°
2026-05-01 08:39 51.64601 -0.59804 36183 ft 512 kts 272°
2026-05-01 08:39 51.65258 -0.71173 36182 ft 512 kts 272°
2026-05-01 08:40 51.66230 -0.88353 36179 ft 512 kts 272°
2026-05-01 08:40 51.66862 -0.99801 36191 ft 511 kts 272°
2026-05-01 08:41 51.67478 -1.11143 36184 ft 511 kts 272°
2026-05-01 08:41 51.68089 -1.22583 36183 ft 511 kts 272°
2026-05-01 08:42 51.68688 -1.34011 36183 ft 511 kts 272°
2026-05-01 08:42 51.69271 -1.45372 36196 ft 511 kts 272°
2026-05-01 08:43 51.69846 -1.56774 36180 ft 509 kts 272°
2026-05-01 08:43 51.70411 -1.68175 36173 ft 509 kts 272°
2026-05-01 08:44 51.71151 -1.79474 36177 ft 510 kts 275°
2026-05-01 08:44 51.72022 -1.90843 36162 ft 510 kts 275°
2026-05-01 08:45 51.72845 -2.02202 36160 ft 509 kts 275°
2026-05-01 08:45 51.73639 -2.13518 36159 ft 509 kts 274°
2026-05-01 08:46 51.74423 -2.24903 36160 ft 509 kts 274°
2026-05-01 08:46 51.75196 -2.36269 36159 ft 509 kts 274°
2026-05-01 08:47 51.75953 -2.47587 36152 ft 509 kts 274°
2026-05-01 08:47 51.76703 -2.58953 36151 ft 509 kts 274°
2026-05-01 08:48 51.77438 -2.70266 36151 ft 509 kts 274°
2026-05-01 08:48 51.78168 -2.81665 36213 ft 509 kts 274°
2026-05-01 08:49 51.78765 -2.91129 36208 ft 509 kts 274°
2026-05-01 08:49 51.79473 -3.02514 36209 ft 509 kts 274°
2026-05-01 08:50 51.80170 -3.13895 36198 ft 509 kts 273°
2026-05-01 08:50 51.80963 -3.27093 36183 ft 509 kts 273°
2026-05-01 08:51 51.81524 -3.36568 36174 ft 509 kts 273°
2026-05-01 08:51 51.82189 -3.47982 36160 ft 509 kts 272°
2026-05-01 08:52 51.83210 -3.59332 36158 ft 512 kts 279°
2026-05-01 08:52 51.84695 -3.70596 36163 ft 512 kts 279°
2026-05-01 08:53 51.86147 -3.81828 36162 ft 512 kts 279°
2026-05-01 08:53 51.87585 -3.93083 36173 ft 514 kts 278°
2026-05-01 08:54 51.89021 -4.04436 36170 ft 514 kts 278°
2026-05-01 08:54 51.90445 -4.15781 36175 ft 513 kts 278°
2026-05-01 08:55 51.91850 -4.27063 36175 ft 513 kts 278°
2026-05-01 08:55 51.93254 -4.38430 36172 ft 513 kts 278°
2026-05-01 08:56 51.94643 -4.49777 36174 ft 515 kts 277°
2026-05-01 08:56 51.96029 -4.61196 36173 ft 515 kts 277°
2026-05-01 08:57 51.97395 -4.72545 36173 ft 515 kts 277°
2026-05-01 08:57 51.98756 -4.83953 36174 ft 515 kts 277°
2026-05-01 08:58 52.00110 -4.95383 36172 ft 515 kts 277°
2026-05-01 08:58 52.01453 -5.06842 36172 ft 516 kts 277°
2026-05-01 08:59 52.02792 -5.18232 36171 ft 517 kts 279°
2026-05-01 08:59 52.04930 -5.29474 36174 ft 521 kts 284°
2026-05-01 09:00 52.07201 -5.40668 36174 ft 520 kts 284°
2026-05-01 09:00 52.09432 -5.51786 36170 ft 520 kts 284°
2026-05-01 09:01 52.11669 -5.63010 36167 ft 520 kts 284°
2026-05-01 09:01 52.13884 -5.74177 36165 ft 520 kts 284°
2026-05-01 09:02 52.16100 -5.85419 36166 ft 520 kts 284°
2026-05-01 09:02 52.18359 -5.96653 36159 ft 522 kts 284°
2026-05-01 09:03 52.20641 -6.07852 36158 ft 522 kts 284°
2026-05-01 09:03 52.22932 -6.19138 36149 ft 522 kts 284°
2026-05-01 09:04 52.25202 -6.30400 36150 ft 522 kts 284°
2026-05-01 09:04 52.27443 -6.41614 36139 ft 522 kts 284°
2026-05-01 09:05 52.29690 -6.52951 36145 ft 525 kts 283°
2026-05-01 09:05 52.31920 -6.64266 36140 ft 525 kts 283°
2026-05-01 09:06 52.34147 -6.75633 36136 ft 525 kts 283°
2026-05-01 09:06 52.36352 -6.86955 36135 ft 525 kts 283°
2026-05-01 09:07 52.38561 -6.98368 36155 ft 526 kts 283°
2026-05-01 09:07 52.40765 -7.09818 36128 ft 527 kts 282°
2026-05-01 09:08 52.42948 -7.21231 36134 ft 527 kts 282°
2026-05-01 09:08 52.45138 -7.32746 36129 ft 527 kts 282°
2026-05-01 09:09 52.47295 -7.44158 36130 ft 526 kts 282°
2026-05-01 09:09 52.49460 -7.55691 36131 ft 530 kts 282°
2026-05-01 09:10 52.51626 -7.67297 36123 ft 530 kts 282°
2026-05-01 09:10 52.53766 -7.78829 36119 ft 529 kts 282°
2026-05-01 09:11 52.55890 -7.90352 36115 ft 529 kts 282°
2026-05-01 09:11 52.58017 -8.01962 36140 ft 529 kts 282°
2026-05-01 09:12 52.60122 -8.13525 36120 ft 530 kts 281°
2026-05-01 09:12 52.62232 -8.25183 36099 ft 530 kts 281°
2026-05-01 09:13 52.64316 -8.36778 36102 ft 530 kts 281°
2026-05-01 09:13 52.66402 -8.48456 36095 ft 530 kts 281°
2026-05-01 09:14 52.68475 -8.60141 36103 ft 531 kts 281°
2026-05-01 09:14 52.70528 -8.71787 36101 ft 531 kts 281°
2026-05-01 09:15 52.72586 -8.83536 36102 ft 532 kts 281°
2026-05-01 09:15 52.74616 -8.95200 36084 ft 532 kts 281°
2026-05-01 09:16 52.76651 -9.06973 36082 ft 531 kts 281°
2026-05-01 09:17 52.79667 -9.24573 36081 ft 533 kts 281°
2026-05-01 09:17 52.82668 -9.42257 36081 ft 533 kts 281°
2026-05-01 09:18 52.85638 -9.59932 36083 ft 532 kts 280°
2026-05-01 09:19 52.88592 -9.77709 36088 ft 534 kts 281°
2026-05-01 09:20 52.91485 -9.95463 36088 ft 532 kts 278°
2026-05-01 09:21 52.94836 -10.19301 36106 ft 531 kts 279°
2026-05-01 09:21 52.97301 -10.37298 36076 ft 532 kts 278°
2026-05-01 09:22 53.00504 -10.61237 36077 ft 532 kts 278°
2026-05-01 09:23 53.02866 -10.79158 36076 ft 531 kts 278°
2026-05-01 09:24 53.05212 -10.97181 36071 ft 531 kts 278°
2026-05-01 09:25 53.08293 -11.21196 36066 ft 531 kts 278°
2026-05-01 09:26 53.10562 -11.39166 36062 ft 530 kts 278°
2026-05-01 09:26 53.12815 -11.57225 36055 ft 530 kts 278°
2026-05-01 09:27 53.15032 -11.75238 36053 ft 530 kts 278°
2026-05-01 09:28 53.16496 -11.87291 36056 ft 530 kts 278°
2026-05-01 09:28 53.17954 -11.99368 36055 ft 530 kts 278°
2026-05-01 09:29 53.20107 -12.17423 36049 ft 530 kts 278°
2026-05-01 09:30 53.22230 -12.35470 36051 ft 530 kts 278°
2026-05-01 09:30 53.24337 -12.53649 36038 ft 531 kts 279°
2026-05-01 09:31 53.25728 -12.65780 36048 ft 531 kts 279°
2026-05-01 09:32 53.27785 -12.83934 36051 ft 531 kts 278°
2026-05-01 09:32 53.29817 -13.02153 36051 ft 532 kts 279°
2026-05-01 09:33 53.31157 -13.14302 36045 ft 530 kts 279°
2026-05-01 09:34 53.33139 -13.32502 36061 ft 531 kts 279°
2026-05-01 09:34 53.35089 -13.50681 36054 ft 532 kts 279°
2026-05-01 09:35 53.37037 -13.69105 36064 ft 533 kts 279°
2026-05-01 09:36 53.38304 -13.81250 36075 ft 534 kts 279°
2026-05-01 09:36 53.39578 -13.93583 36077 ft 532 kts 279°
2026-05-01 09:37 53.40821 -14.05766 36070 ft 531 kts 279°
2026-05-01 09:37 53.42667 -14.24087 36089 ft 529 kts 280°
2026-05-01 09:38 53.44477 -14.42318 36097 ft 531 kts 279°
2026-05-01 09:39 53.46256 -14.60556 36113 ft 525 kts 280°
2026-05-01 09:39 53.47430 -14.72780 36104 ft 530 kts 281°
2026-05-01 09:40 53.49165 -14.90978 36110 ft 527 kts 281°
2026-05-01 09:41 53.50065 -15.03204 36125 ft 532 kts 274°
2026-05-01 09:41 53.50402 -15.21692 36128 ft 528 kts 274°
2026-05-01 09:42 53.50658 -15.34036 36138 ft 526 kts 274°
2026-05-01 09:43 53.51051 -15.56563 36145 ft 525 kts 274°
2026-05-01 09:43 53.51242 -15.68800 36141 ft 528 kts 274°
2026-05-01 09:44 53.51504 -15.87135 36160 ft 524 kts 274°
2026-05-01 09:45 53.51666 -15.99430 36161 ft 524 kts 274°
2026-05-01 09:45 53.51882 -16.17769 36168 ft 524 kts 274°
2026-05-01 09:46 53.52011 -16.30039 36167 ft 525 kts 274°
2026-05-01 09:46 53.52128 -16.42328 36183 ft 525 kts 273°
2026-05-01 09:47 53.52231 -16.54553 36181 ft 525 kts 273°
2026-05-01 09:47 53.52323 -16.66833 36188 ft 524 kts 273°
2026-05-01 09:48 53.52401 -16.79113 36174 ft 525 kts 274°
2026-05-01 09:48 53.52467 -16.91311 36195 ft 524 kts 274°
2026-05-01 09:49 53.52521 -17.03569 36202 ft 524 kts 273°
2026-05-01 09:49 53.52561 -17.15833 36198 ft 523 kts 274°
2026-05-01 09:50 53.52590 -17.28067 36205 ft 523 kts 274°
2026-05-01 09:50 53.52604 -17.40235 36210 ft 521 kts 274°
2026-05-01 09:51 53.52609 -17.52444 36217 ft 521 kts 274°
2026-05-01 09:51 53.52601 -17.64556 36226 ft 521 kts 274°
2026-05-01 09:52 53.52580 -17.76763 36218 ft 521 kts 274°
2026-05-01 09:52 53.52546 -17.88902 36222 ft 520 kts 274°
2026-05-01 09:53 53.52500 -18.01109 36232 ft 521 kts 274°
2026-05-01 09:53 53.52443 -18.13228 36238 ft 521 kts 274°
2026-05-01 09:54 53.52372 -18.25437 36238 ft 521 kts 274°
2026-05-01 09:54 53.52290 -18.37550 36245 ft 521 kts 273°
2026-05-01 09:55 53.52194 -18.49714 36252 ft 520 kts 273°
2026-05-01 09:55 53.52088 -18.61864 36249 ft 519 kts 273°
2026-05-01 09:56 53.51968 -18.74047 36253 ft 520 kts 273°
2026-05-01 09:56 53.51837 -18.86108 36258 ft 516 kts 273°
2026-05-01 09:57 53.51693 -18.98190 36264 ft 517 kts 273°
2026-05-01 09:57 53.51538 -19.10288 36265 ft 516 kts 273°
2026-05-01 09:58 53.51371 -19.22310 36271 ft 517 kts 272°
2026-05-01 09:58 53.51191 -19.34403 36271 ft 517 kts 272°
2026-05-01 09:59 53.51000 -19.46430 36276 ft 517 kts 272°
2026-05-01 09:59 53.50796 -19.58510 36276 ft 517 kts 272°
2026-05-01 10:00 53.50581 -19.70535 36285 ft 517 kts 272°
2026-05-01 10:00 53.50353 -19.82621 36289 ft 517 kts 272°
2026-05-01 10:01 53.50119 -19.94720 36287 ft 517 kts 272°
2026-05-01 10:01 53.49589 -20.06747 36288 ft 519 kts 267°
2026-05-01 10:02 53.48866 -20.18838 36294 ft 519 kts 268°
2026-05-01 10:02 53.48185 -20.30836 36290 ft 519 kts 268°
2026-05-01 10:03 53.47483 -20.42911 36296 ft 519 kts 268°
2026-05-01 10:03 53.46765 -20.54981 36279 ft 519 kts 268°
2026-05-01 10:04 53.46031 -20.67032 36295 ft 518 kts 268°
2026-05-01 10:04 53.45279 -20.79062 36303 ft 517 kts 267°
2026-05-01 10:05 53.44519 -20.91013 36308 ft 518 kts 267°
2026-05-01 10:05 53.43742 -21.03032 36309 ft 518 kts 267°
2026-05-01 10:06 53.42953 -21.15047 36317 ft 516 kts 267°
2026-05-01 10:06 53.42157 -21.26978 36317 ft 517 kts 266°
2026-05-01 10:07 53.41349 -21.38917 36314 ft 517 kts 266°
2026-05-01 10:07 53.40524 -21.50916 36316 ft 517 kts 266°
2026-05-01 10:08 53.39270 -21.68828 36316 ft 517 kts 266°
2026-05-01 10:09 53.38414 -21.80825 36323 ft 517 kts 266°
2026-05-01 10:09 53.37548 -21.92793 36328 ft 517 kts 266°
2026-05-01 10:10 53.36675 -22.04698 36331 ft 517 kts 266°
2026-05-01 10:10 53.35337 -22.22613 36333 ft 515 kts 266°
2026-05-01 10:11 53.34438 -22.34458 36339 ft 516 kts 266°
2026-05-01 10:11 53.33521 -22.46372 36339 ft 516 kts 266°
2026-05-01 10:12 53.32750 -22.56271 36344 ft 516 kts 265°
2026-05-01 10:13 53.31181 -22.76078 36347 ft 514 kts 265°
2026-05-01 10:13 53.30231 -22.87874 36347 ft 514 kts 265°
2026-05-01 10:14 53.28787 -23.05519 36355 ft 511 kts 265°
2026-05-01 10:14 53.27806 -23.17325 36341 ft 511 kts 265°
2026-05-01 10:15 53.26823 -23.29020 36358 ft 511 kts 265°
2026-05-01 10:15 53.25819 -23.40803 36363 ft 511 kts 265°
2026-05-01 10:16 53.24805 -23.52576 36362 ft 511 kts 265°
2026-05-01 10:17 53.23268 -23.70146 36355 ft 512 kts 265°
2026-05-01 10:17 53.21698 -23.87791 36373 ft 512 kts 264°
2026-05-01 10:18 53.20109 -24.05344 36379 ft 512 kts 264°
2026-05-01 10:19 53.19030 -24.17090 36378 ft 512 kts 264°
2026-05-01 10:19 53.17940 -24.28818 36390 ft 511 kts 265°
2026-05-01 10:20 53.16294 -24.46322 36393 ft 511 kts 264°
2026-05-01 10:20 53.15181 -24.57990 36393 ft 511 kts 264°
2026-05-01 10:21 53.13488 -24.75475 36399 ft 509 kts 265°
2026-05-01 10:22 53.11772 -24.92950 36398 ft 509 kts 265°
2026-05-01 10:23 53.10037 -25.10349 36397 ft 507 kts 264°
2026-05-01 10:23 53.08284 -25.27636 36406 ft 506 kts 264°
2026-05-01 10:24 53.05906 -25.50709 36412 ft 506 kts 264°
2026-05-01 10:25 53.03487 -25.73716 36399 ft 506 kts 264°
2026-05-01 10:26 53.02257 -25.85245 36425 ft 506 kts 264°
2026-05-01 10:27 52.99770 -26.08224 36427 ft 506 kts 264°
2026-05-01 10:28 52.97871 -26.25491 36419 ft 506 kts 264°
2026-05-01 10:28 52.95957 -26.42647 36430 ft 506 kts 264°
2026-05-01 10:29 52.94008 -26.59874 36433 ft 506 kts 264°
2026-05-01 10:30 52.91379 -26.82748 36436 ft 506 kts 263°
2026-05-01 10:31 52.88704 -27.05621 36446 ft 506 kts 263°
2026-05-01 10:32 52.86661 -27.22816 36443 ft 506 kts 263°
2026-05-01 10:33 52.84143 -27.43710 36446 ft 506 kts 263°
2026-05-01 10:34 52.81818 -27.62718 36459 ft 507 kts 263°
2026-05-01 10:34 52.80640 -27.72248 36451 ft 506 kts 263°
2026-05-01 10:35 52.78506 -27.89341 36461 ft 506 kts 262°
2026-05-01 10:35 52.77075 -28.00686 36459 ft 506 kts 262°
2026-05-01 10:36 52.74903 -28.17731 36464 ft 506 kts 262°
2026-05-01 10:37 52.73438 -28.29114 36467 ft 507 kts 262°
2026-05-01 10:37 52.71214 -28.46221 36471 ft 507 kts 262°
2026-05-01 10:38 52.69728 -28.57534 36471 ft 507 kts 262°
2026-05-01 10:38 52.68220 -28.68919 36474 ft 507 kts 262°
2026-05-01 10:39 52.66709 -28.80244 36474 ft 507 kts 262°
2026-05-01 10:39 52.65178 -28.91631 36480 ft 507 kts 261°
2026-05-01 10:40 52.63649 -29.02910 36483 ft 508 kts 261°
2026-05-01 10:40 52.62099 -29.14261 36481 ft 508 kts 261°
2026-05-01 10:41 52.60538 -29.25602 36469 ft 508 kts 261°
2026-05-01 10:42 52.58187 -29.42517 36479 ft 506 kts 261°
2026-05-01 10:42 52.56602 -29.53821 36487 ft 506 kts 261°
2026-05-01 10:43 52.55022 -29.65027 36491 ft 506 kts 261°
2026-05-01 10:43 52.53427 -29.76302 36486 ft 507 kts 260°
2026-05-01 10:44 52.51817 -29.87606 36498 ft 507 kts 260°
2026-05-01 10:44 52.50200 -29.98877 36495 ft 507 kts 260°
2026-05-01 10:45 52.49119 -30.10186 36492 ft 503 kts 269°
2026-05-01 10:45 52.48651 -30.21626 36494 ft 502 kts 269°
2026-05-01 10:46 52.48068 -30.33093 36494 ft 504 kts 268°
2026-05-01 10:46 52.47410 -30.44497 36492 ft 504 kts 267°
2026-05-01 10:47 52.46725 -30.55983 36498 ft 504 kts 267°
2026-05-01 10:47 52.46032 -30.67363 36502 ft 504 kts 267°
2026-05-01 10:48 52.45318 -30.78841 36492 ft 504 kts 267°
2026-05-01 10:48 52.44593 -30.90299 36501 ft 503 kts 266°
2026-05-01 10:49 52.43863 -31.01646 36512 ft 503 kts 266°
2026-05-01 10:49 52.43117 -31.13067 36510 ft 503 kts 266°
2026-05-01 10:50 52.42361 -31.24490 36501 ft 503 kts 266°
2026-05-01 10:50 52.41597 -31.35861 36494 ft 505 kts 265°
2026-05-01 10:51 52.40818 -31.47278 36503 ft 504 kts 265°
2026-05-01 10:51 52.40026 -31.58708 36502 ft 505 kts 265°
2026-05-01 10:52 52.39224 -31.70137 36500 ft 505 kts 265°
2026-05-01 10:52 52.38416 -31.81490 36506 ft 505 kts 265°
2026-05-01 10:53 52.37590 -31.92935 36503 ft 505 kts 265°
2026-05-01 10:53 52.36753 -32.04372 36518 ft 505 kts 265°
2026-05-01 10:54 52.35913 -32.15705 36507 ft 502 kts 265°
2026-05-01 10:54 52.35063 -32.27011 36525 ft 503 kts 265°
2026-05-01 10:55 52.34196 -32.38395 36517 ft 503 kts 265°
2026-05-01 10:55 52.33323 -32.49730 36510 ft 504 kts 264°
2026-05-01 10:56 52.32431 -32.61143 36517 ft 505 kts 264°
2026-05-01 10:56 52.31535 -32.72473 36517 ft 505 kts 264°
2026-05-01 10:57 52.30623 -32.83855 36516 ft 504 kts 264°
2026-05-01 10:57 52.29700 -32.95244 36509 ft 506 kts 263°
2026-05-01 10:58 52.28770 -33.06576 36520 ft 506 kts 263°
2026-05-01 10:58 52.27822 -33.17988 36521 ft 506 kts 263°
2026-05-01 10:59 52.26871 -33.29300 36517 ft 506 kts 263°
2026-05-01 10:59 52.25904 -33.40666 36519 ft 504 kts 263°
2026-05-01 11:00 52.24926 -33.52031 36525 ft 505 kts 263°
2026-05-01 11:00 52.23948 -33.63261 36524 ft 505 kts 263°
2026-05-01 11:01 52.22938 -33.74729 36520 ft 505 kts 262°
2026-05-01 11:01 52.21932 -33.86033 36528 ft 505 kts 262°
2026-05-01 11:02 52.20915 -33.97328 36518 ft 505 kts 262°
2026-05-01 11:02 52.19878 -34.08725 36532 ft 508 kts 262°
2026-05-01 11:03 52.18828 -34.20125 36535 ft 508 kts 262°
2026-05-01 11:03 52.17773 -34.31453 36538 ft 508 kts 261°
2026-05-01 11:04 52.16699 -34.42872 36536 ft 508 kts 261°
2026-05-01 11:04 52.15623 -34.54205 36532 ft 511 kts 261°
2026-05-01 11:05 52.14528 -34.65604 36529 ft 508 kts 261°
2026-05-01 11:05 52.13423 -34.76984 36530 ft 508 kts 261°
2026-05-01 11:06 52.12308 -34.88348 36532 ft 508 kts 261°
2026-05-01 11:06 52.11190 -34.99628 36535 ft 508 kts 261°
2026-05-01 11:07 52.09474 -35.16735 36532 ft 510 kts 260°
2026-05-01 11:07 52.08322 -35.28056 36532 ft 510 kts 260°
2026-05-01 11:08 52.07152 -35.39457 36535 ft 510 kts 260°
2026-05-01 11:09 52.05386 -35.56450 36539 ft 511 kts 259°
2026-05-01 11:09 52.04183 -35.67893 36544 ft 511 kts 259°
2026-05-01 11:10 52.02369 -35.84922 36540 ft 511 kts 259°
2026-05-01 11:10 52.01149 -35.96248 36537 ft 510 kts 259°
2026-05-01 11:11 51.99913 -36.07612 36541 ft 511 kts 258°
2026-05-01 11:11 51.98659 -36.19037 36544 ft 513 kts 258°
2026-05-01 11:12 51.97403 -36.30364 36544 ft 513 kts 258°
2026-05-01 11:12 51.96130 -36.41745 36531 ft 513 kts 258°
2026-05-01 11:13 51.94843 -36.53151 36541 ft 513 kts 258°
2026-05-01 11:13 51.93552 -36.64487 36528 ft 516 kts 257°
2026-05-01 11:14 51.92236 -36.75937 36545 ft 516 kts 257°
2026-05-01 11:14 51.90920 -36.87285 36536 ft 515 kts 257°
2026-05-01 11:15 51.89583 -36.98708 36540 ft 514 kts 257°
2026-05-01 11:15 51.88241 -37.10080 36535 ft 514 kts 257°
2026-05-01 11:16 51.86894 -37.21394 36537 ft 514 kts 257°
2026-05-01 11:16 51.85524 -37.32801 36546 ft 514 kts 257°
2026-05-01 11:17 51.84152 -37.44127 36543 ft 514 kts 257°
2026-05-01 11:17 51.82773 -37.55411 36543 ft 514 kts 257°
2026-05-01 11:18 51.81372 -37.66787 36538 ft 517 kts 256°
2026-05-01 11:18 51.79962 -37.78135 36539 ft 517 kts 256°
2026-05-01 11:19 51.78529 -37.89566 36548 ft 517 kts 256°
2026-05-01 11:19 51.77099 -38.00887 36540 ft 517 kts 256°
2026-05-01 11:20 51.75646 -38.12291 36546 ft 517 kts 256°
2026-05-01 11:20 51.74188 -38.23644 36539 ft 518 kts 256°
2026-05-01 11:21 51.72712 -38.35049 36541 ft 518 kts 256°
2026-05-01 11:21 51.71235 -38.46364 36535 ft 518 kts 255°
2026-05-01 11:22 51.69738 -38.57737 36539 ft 518 kts 255°
2026-05-01 11:22 51.68234 -38.69074 36545 ft 521 kts 255°
2026-05-01 11:23 51.66703 -38.80528 36541 ft 522 kts 255°
2026-05-01 11:23 51.65162 -38.91966 36541 ft 522 kts 255°
2026-05-01 11:24 51.63619 -39.03326 36540 ft 521 kts 255°
2026-05-01 11:25 51.61535 -39.18536 36542 ft 524 kts 255°
2026-05-01 11:25 51.59163 -39.35657 36541 ft 521 kts 254°
2026-05-01 11:26 51.56769 -39.52735 36540 ft 521 kts 254°
2026-05-01 11:27 51.55171 -39.64052 36546 ft 521 kts 254°
2026-05-01 11:27 51.53555 -39.75458 36543 ft 524 kts 254°
2026-05-01 11:28 51.51938 -39.86792 36537 ft 523 kts 254°
2026-05-01 11:28 51.50293 -39.98247 36541 ft 523 kts 254°
2026-05-01 11:29 51.48892 -40.15636 36541 ft 528 kts 264°
2026-05-01 11:30 51.48066 -40.33250 36534 ft 529 kts 262°
2026-05-01 11:30 51.47392 -40.45017 36540 ft 528 kts 262°
2026-05-01 11:31 51.46694 -40.56786 36540 ft 528 kts 262°
2026-05-01 11:31 51.45985 -40.68454 36536 ft 528 kts 262°
2026-05-01 11:32 51.45253 -40.80219 36542 ft 529 kts 262°
2026-05-01 11:32 51.44512 -40.91948 36538 ft 529 kts 262°
2026-05-01 11:33 51.43762 -41.03628 36535 ft 529 kts 261°
2026-05-01 11:33 51.42994 -41.15406 36530 ft 529 kts 261°
2026-05-01 11:34 51.42225 -41.27031 36534 ft 525 kts 261°
2026-05-01 11:34 51.41439 -41.38702 36537 ft 525 kts 261°
2026-05-01 11:35 51.40648 -41.50285 36537 ft 525 kts 261°
2026-05-01 11:35 51.39842 -41.61919 36540 ft 525 kts 261°
2026-05-01 11:36 51.39029 -41.73492 36517 ft 525 kts 261°
2026-05-01 11:36 51.38199 -41.85125 36520 ft 525 kts 261°
2026-05-01 11:37 51.37359 -41.96736 36528 ft 523 kts 261°
2026-05-01 11:37 51.36514 -42.08263 36532 ft 523 kts 261°
2026-05-01 11:38 51.35658 -42.19790 36528 ft 520 kts 260°
2026-05-01 11:38 51.34794 -42.31241 36527 ft 521 kts 260°
2026-05-01 11:39 51.33915 -42.42751 36527 ft 520 kts 260°
2026-05-01 11:39 51.33025 -42.54260 36523 ft 520 kts 260°
2026-05-01 11:40 51.32129 -42.65687 36528 ft 520 kts 260°
2026-05-01 11:40 51.31215 -42.77197 36529 ft 521 kts 260°
2026-05-01 11:41 51.30291 -42.88696 36527 ft 520 kts 260°
2026-05-01 11:41 51.29365 -43.00080 36526 ft 517 kts 259°
2026-05-01 11:42 51.28427 -43.11455 36535 ft 515 kts 260°
2026-05-01 11:42 51.27485 -43.22745 36528 ft 515 kts 260°
2026-05-01 11:43 51.26527 -43.34101 36526 ft 515 kts 260°
2026-05-01 11:43 51.25563 -43.45388 36524 ft 515 kts 260°
2026-05-01 11:44 51.24089 -43.62387 36527 ft 513 kts 260°
2026-05-01 11:44 51.23103 -43.73598 36520 ft 513 kts 260°
2026-05-01 11:45 51.22100 -43.84898 36523 ft 510 kts 260°
2026-05-01 11:45 51.21098 -43.96045 36520 ft 511 kts 260°
2026-05-01 11:46 51.20076 -44.07279 36520 ft 511 kts 260°
2026-05-01 11:46 51.19052 -44.18427 36521 ft 509 kts 260°
2026-05-01 11:47 51.18013 -44.29619 36519 ft 509 kts 260°
2026-05-01 11:47 51.16968 -44.40745 36520 ft 509 kts 259°
2026-05-01 11:48 51.15905 -44.51952 36520 ft 509 kts 259°
2026-05-01 11:48 51.14842 -44.63043 36525 ft 509 kts 259°
2026-05-01 11:49 51.13763 -44.74189 36518 ft 508 kts 259°
2026-05-01 11:49 51.12675 -44.85305 36514 ft 508 kts 259°
2026-05-01 11:50 51.11581 -44.96371 36519 ft 508 kts 259°
2026-05-01 11:50 51.10471 -45.07489 36515 ft 508 kts 259°
2026-05-01 11:51 51.09359 -45.18518 36513 ft 508 kts 259°
2026-05-01 11:51 51.08229 -45.29618 36509 ft 508 kts 259°
2026-05-01 11:52 51.07091 -45.40688 36507 ft 508 kts 259°
2026-05-01 11:52 51.05941 -45.51765 36508 ft 507 kts 258°
2026-05-01 11:53 51.04780 -45.62844 36508 ft 507 kts 258°
2026-05-01 11:53 51.03617 -45.73833 36505 ft 507 kts 258°
2026-05-01 11:54 51.02435 -45.84907 36506 ft 507 kts 258°
2026-05-01 11:54 51.01249 -45.95909 36506 ft 507 kts 258°
2026-05-01 11:55 51.00046 -46.06968 36506 ft 507 kts 258°
2026-05-01 11:55 50.98839 -46.17954 36506 ft 507 kts 258°
2026-05-01 11:56 50.97616 -46.29001 36506 ft 507 kts 258°
2026-05-01 11:56 50.96390 -46.39965 36506 ft 507 kts 258°
2026-05-01 11:57 50.95143 -46.51019 36506 ft 507 kts 258°
2026-05-01 11:57 50.93899 -46.61958 36503 ft 507 kts 258°
2026-05-01 11:58 50.92633 -46.72983 36506 ft 507 kts 257°
2026-05-01 11:59 50.90726 -46.89417 36500 ft 507 kts 257°
2026-05-01 11:59 50.89436 -47.00420 36503 ft 508 kts 257°
2026-05-01 12:00 50.87486 -47.16862 36500 ft 508 kts 257°
2026-05-01 12:01 50.85504 -47.33374 36497 ft 508 kts 257°
2026-05-01 12:01 50.84177 -47.44320 36495 ft 508 kts 257°
2026-05-01 12:02 50.82828 -47.55348 36495 ft 509 kts 257°
2026-05-01 12:02 50.81470 -47.66355 36494 ft 509 kts 257°
2026-05-01 12:03 50.80114 -47.77264 36495 ft 509 kts 257°
2026-05-01 12:03 50.78734 -47.88275 36495 ft 509 kts 257°
2026-05-01 12:04 50.77353 -47.99194 36492 ft 510 kts 257°
2026-05-01 12:04 50.75950 -48.10210 36492 ft 510 kts 257°
2026-05-01 12:05 50.74548 -48.21134 36493 ft 510 kts 257°
2026-05-01 12:05 50.72410 -48.37622 36489 ft 510 kts 257°
2026-05-01 12:06 50.70982 -48.48532 36489 ft 510 kts 257°
2026-05-01 12:06 50.69532 -48.59519 36483 ft 511 kts 257°
2026-05-01 12:07 50.68071 -48.70506 36482 ft 511 kts 257°
2026-05-01 12:07 50.66610 -48.81415 36482 ft 511 kts 257°
2026-05-01 12:08 50.65126 -48.92401 36480 ft 511 kts 256°
2026-05-01 12:08 50.63643 -49.03303 36478 ft 511 kts 256°
2026-05-01 12:09 50.62140 -49.14271 36476 ft 512 kts 256°
2026-05-01 12:09 50.60629 -49.25218 36470 ft 512 kts 256°
2026-05-01 12:10 50.58347 -49.41588 36465 ft 511 kts 256°
2026-05-01 12:11 50.56046 -49.57921 36468 ft 513 kts 256°
2026-05-01 12:11 50.54485 -49.68944 36462 ft 515 kts 256°
2026-05-01 12:12 50.52914 -49.79987 36463 ft 515 kts 256°
2026-05-01 12:12 50.51345 -49.90944 36459 ft 517 kts 256°
2026-05-01 12:13 50.49516 -50.01787 36456 ft 515 kts 251°
2026-05-01 12:13 50.47026 -50.12319 36453 ft 514 kts 248°
2026-05-01 12:14 50.44491 -50.22855 36448 ft 515 kts 249°
2026-05-01 12:14 50.41973 -50.33328 36447 ft 515 kts 248°
2026-05-01 12:15 50.39424 -50.43830 36441 ft 514 kts 248°
2026-05-01 12:15 50.36854 -50.54349 36444 ft 516 kts 248°
2026-05-01 12:16 50.34707 -50.63098 36434 ft 517 kts 248°
2026-05-01 12:16 50.32117 -50.73611 36435 ft 518 kts 248°
2026-05-01 12:17 50.29531 -50.84055 36432 ft 517 kts 248°
2026-05-01 12:17 50.26914 -50.94575 36424 ft 518 kts 248°
2026-05-01 12:18 50.24296 -51.05049 36427 ft 517 kts 248°
2026-05-01 12:18 50.21693 -51.15415 36423 ft 515 kts 248°
2026-05-01 12:19 50.19064 -51.25837 36423 ft 517 kts 248°
2026-05-01 12:19 50.16425 -51.36250 36416 ft 516 kts 248°
2026-05-01 12:20 50.13790 -51.46599 36418 ft 517 kts 248°
2026-05-01 12:20 50.11144 -51.56944 36412 ft 511 kts 247°
2026-05-01 12:21 50.08500 -51.67231 36408 ft 512 kts 247°
2026-05-01 12:21 50.05858 -51.77466 36407 ft 512 kts 247°
2026-05-01 12:22 50.03201 -51.87712 36406 ft 512 kts 247°
2026-05-01 12:22 50.00530 -51.97973 36406 ft 509 kts 247°
2026-05-01 12:23 49.97777 -52.08140 36399 ft 509 kts 245°
2026-05-01 12:23 49.94959 -52.18157 36396 ft 509 kts 246°
2026-05-01 12:24 49.92157 -52.28260 36393 ft 509 kts 246°
2026-05-01 12:24 49.89360 -52.38380 36391 ft 508 kts 245°
2026-05-01 12:25 49.85189 -52.53398 36389 ft 505 kts 245°
2026-05-01 12:26 49.82407 -52.63360 36389 ft 503 kts 245°
2026-05-01 12:26 49.78217 -52.78278 36384 ft 505 kts 245°
2026-05-01 12:27 49.74000 -52.93196 36382 ft 504 kts 245°
2026-05-01 12:28 49.69764 -53.08046 36376 ft 505 kts 245°
2026-05-01 12:29 49.65488 -53.22937 36370 ft 503 kts 245°
2026-05-01 12:29 49.61235 -53.37654 36366 ft 502 kts 245°
2026-05-01 12:30 49.56957 -53.52371 36373 ft 501 kts 244°
2026-05-01 12:31 49.54089 -53.62187 36367 ft 501 kts 244°
2026-05-01 12:31 49.51219 -53.71970 36361 ft 501 kts 244°
2026-05-01 12:32 49.48355 -53.81690 36367 ft 501 kts 244°
2026-05-01 12:32 49.44041 -53.96262 36358 ft 500 kts 244°
2026-05-01 12:33 49.41147 -54.05989 36353 ft 499 kts 244°
2026-05-01 12:33 49.38260 -54.15657 36351 ft 499 kts 244°
2026-05-01 12:34 49.35344 -54.25378 36355 ft 499 kts 244°
2026-05-01 12:34 49.32449 -54.34992 36344 ft 499 kts 244°
2026-05-01 12:35 49.29523 -54.44673 36342 ft 499 kts 244°
2026-05-01 12:35 49.26598 -54.54313 36323 ft 497 kts 243°
2026-05-01 12:36 49.23685 -54.63873 36331 ft 497 kts 243°
2026-05-01 12:36 49.20746 -54.73482 36325 ft 497 kts 243°
2026-05-01 12:37 49.17819 -54.83012 36323 ft 497 kts 243°
2026-05-01 12:37 49.14862 -54.92607 36319 ft 497 kts 243°
2026-05-01 12:38 49.11927 -55.02093 36326 ft 497 kts 243°
2026-05-01 12:38 49.08960 -55.11643 36325 ft 497 kts 243°
2026-05-01 12:39 49.05991 -55.21164 36307 ft 496 kts 243°
2026-05-01 12:39 49.03022 -55.30649 36323 ft 496 kts 243°
2026-05-01 12:40 49.00055 -55.40093 36321 ft 496 kts 243°
2026-05-01 12:40 48.97070 -55.49556 36316 ft 495 kts 243°
2026-05-01 12:41 48.94078 -55.59007 36308 ft 495 kts 243°
2026-05-01 12:41 48.91073 -55.68463 36300 ft 495 kts 243°
2026-05-01 12:42 48.88084 -55.77832 36304 ft 495 kts 243°
2026-05-01 12:42 48.85080 -55.87214 36298 ft 495 kts 243°
2026-05-01 12:43 48.82061 -55.96609 36297 ft 495 kts 243°
2026-05-01 12:43 48.79030 -56.06006 36293 ft 495 kts 243°
2026-05-01 12:44 48.75999 -56.15368 36281 ft 494 kts 243°
2026-05-01 12:45 48.69945 -56.33962 36277 ft 494 kts 243°
2026-05-01 12:45 48.66891 -56.43294 36276 ft 493 kts 242°
2026-05-01 12:46 48.63851 -56.52546 36268 ft 493 kts 242°
2026-05-01 12:46 48.60786 -56.61839 36268 ft 493 kts 242°
2026-05-01 12:47 48.57730 -56.71073 36265 ft 493 kts 242°
2026-05-01 12:47 48.54654 -56.80331 36260 ft 493 kts 242°
2026-05-01 12:48 48.51559 -56.89615 36257 ft 493 kts 242°
2026-05-01 12:48 48.48488 -56.98794 36263 ft 493 kts 242°
2026-05-01 12:49 48.45393 -57.08010 36263 ft 493 kts 242°
2026-05-01 12:49 48.42283 -57.17239 36262 ft 493 kts 241°
2026-05-01 12:50 48.39162 -57.26466 36267 ft 493 kts 241°
2026-05-01 12:50 48.36055 -57.35621 36258 ft 493 kts 241°
2026-05-01 12:51 48.32946 -57.44747 36252 ft 493 kts 240°
2026-05-01 12:52 48.28243 -57.58494 36244 ft 492 kts 240°
2026-05-01 12:52 48.23537 -57.72173 36232 ft 492 kts 240°
2026-05-01 12:53 48.18819 -57.85817 36230 ft 492 kts 240°
2026-05-01 12:54 48.15658 -57.94917 36229 ft 492 kts 240°
2026-05-01 12:54 48.10898 -58.08559 36211 ft 491 kts 240°
2026-05-01 12:55 48.06157 -58.22080 36213 ft 490 kts 240°
2026-05-01 12:56 48.02976 -58.31112 36210 ft 490 kts 240°
2026-05-01 12:56 47.99803 -58.40091 36195 ft 489 kts 241°
2026-05-01 12:57 47.96629 -58.49038 36191 ft 486 kts 241°
2026-05-01 12:57 47.91864 -58.62421 36191 ft 487 kts 241°
2026-05-01 12:58 47.88667 -58.71359 36192 ft 487 kts 241°
2026-05-01 12:59 47.83906 -58.84612 36192 ft 483 kts 242°
2026-05-01 12:59 47.79146 -58.97801 36189 ft 483 kts 242°
2026-05-01 13:00 47.74384 -59.10930 36170 ft 472 kts 242°
2026-05-01 13:01 47.69709 -59.23751 36165 ft 475 kts 241°
2026-05-01 13:02 47.65051 -59.36465 36160 ft 454 kts 241°
2026-05-01 13:07 47.32083 -60.24767 36099 ft 452 kts 239°
2026-05-01 13:08 47.29007 -60.32860 36090 ft 452 kts 239°
2026-05-01 13:08 47.25922 -60.40948 36091 ft 452 kts 239°
2026-05-01 13:09 47.22843 -60.49000 36078 ft 453 kts 239°
2026-05-01 13:09 47.19743 -60.57083 36068 ft 453 kts 239°
2026-05-01 13:10 47.16635 -60.65159 36054 ft 453 kts 239°
2026-05-01 13:10 47.13544 -60.73169 36056 ft 453 kts 239°
2026-05-01 13:11 47.10429 -60.81220 36049 ft 453 kts 239°
2026-05-01 13:11 47.07304 -60.89270 36046 ft 452 kts 239°
2026-05-01 13:12 47.04201 -60.97241 36038 ft 452 kts 238°
2026-05-01 13:12 47.01071 -61.05254 36020 ft 452 kts 238°
2026-05-01 13:13 46.97965 -61.13185 36001 ft 451 kts 238°
2026-05-01 13:13 46.94829 -61.21167 35965 ft 451 kts 238°
2026-05-01 13:14 46.91695 -61.29124 35964 ft 451 kts 238°
2026-05-01 13:14 46.88572 -61.37030 35929 ft 450 kts 238°
2026-05-01 13:15 46.85425 -61.44969 35939 ft 450 kts 238°
2026-05-01 13:15 46.82282 -61.52878 35916 ft 450 kts 238°
2026-05-01 13:16 46.79157 -61.60720 35928 ft 449 kts 238°
2026-05-01 13:16 46.76006 -61.68606 35921 ft 449 kts 237°
2026-05-01 13:17 46.69702 -61.84306 35940 ft 448 kts 237°
2026-05-01 13:18 46.64973 -61.96027 35949 ft 448 kts 237°
2026-05-01 13:18 46.61798 -62.03870 35953 ft 448 kts 237°
2026-05-01 13:19 46.58642 -62.11641 35938 ft 448 kts 237°
2026-05-01 13:20 46.53873 -62.23345 35933 ft 448 kts 237°
2026-05-01 13:20 46.50707 -62.31088 35927 ft 448 kts 236°
2026-05-01 13:21 46.45915 -62.42764 35930 ft 448 kts 236°
2026-05-01 13:21 46.42720 -62.50522 35910 ft 448 kts 236°
2026-05-01 13:22 46.39517 -62.58277 35903 ft 448 kts 236°
2026-05-01 13:22 46.36329 -62.65977 35911 ft 448 kts 236°
2026-05-01 13:23 46.33114 -62.73718 35889 ft 448 kts 236°
2026-05-01 13:23 46.29890 -62.81458 35882 ft 448 kts 236°
2026-05-01 13:24 46.26683 -62.89136 35878 ft 448 kts 236°
2026-05-01 13:25 46.21833 -63.00711 35874 ft 448 kts 235°
2026-05-01 13:25 46.18609 -63.08376 35878 ft 448 kts 235°
2026-05-01 13:26 46.15365 -63.16068 35878 ft 448 kts 235°
2026-05-01 13:26 46.12126 -63.23728 35880 ft 448 kts 235°
2026-05-01 13:27 46.08871 -63.31405 35881 ft 448 kts 234°
2026-05-01 13:27 46.03989 -63.42880 35851 ft 447 kts 234°
2026-05-01 13:28 45.99120 -63.54275 35835 ft 447 kts 234°
2026-05-01 13:29 45.92606 -63.69452 35816 ft 447 kts 234°
2026-05-01 13:31 45.82794 -63.92149 35799 ft 446 kts 233°
2026-05-01 13:32 45.74561 -64.11058 35800 ft 447 kts 233°
2026-05-01 13:33 45.66308 -64.29885 35755 ft 446 kts 232°
2026-05-01 13:34 45.59700 -64.44867 35757 ft 446 kts 232°
2026-05-01 13:35 45.54729 -64.56085 35758 ft 447 kts 232°
2026-05-01 13:36 45.49720 -64.67348 35746 ft 448 kts 232°
2026-05-01 13:36 45.44709 -64.78567 35751 ft 449 kts 232°
2026-05-01 13:37 45.41343 -64.86080 35756 ft 449 kts 231°
2026-05-01 13:37 45.37996 -64.93528 35758 ft 449 kts 231°
2026-05-01 13:38 45.32930 -65.04766 35755 ft 449 kts 231°
2026-05-01 13:39 45.29571 -65.12194 35762 ft 449 kts 231°
2026-05-01 13:39 45.26185 -65.19661 35750 ft 449 kts 231°
2026-05-01 13:40 45.22793 -65.27122 35755 ft 450 kts 231°
2026-05-01 13:40 45.19386 -65.34597 35762 ft 450 kts 231°
2026-05-01 13:41 45.15994 -65.42020 35755 ft 450 kts 231°
2026-05-01 13:41 45.12594 -65.49437 35753 ft 450 kts 231°
2026-05-01 13:42 45.09176 -65.56879 35754 ft 451 kts 231°
2026-05-01 13:42 45.05755 -65.64305 35757 ft 451 kts 231°
2026-05-01 13:43 45.02342 -65.71696 35758 ft 451 kts 231°
2026-05-01 13:43 44.98904 -65.79120 35763 ft 451 kts 231°
2026-05-01 13:44 44.95458 -65.86542 35766 ft 451 kts 231°
2026-05-01 13:44 44.92029 -65.93909 35767 ft 451 kts 231°
2026-05-01 13:45 44.88571 -66.01320 35769 ft 451 kts 231°
2026-05-01 13:45 44.85109 -66.08721 35759 ft 451 kts 231°
2026-05-01 13:46 44.81669 -66.16054 35740 ft 451 kts 232°
2026-05-01 13:46 44.78198 -66.23434 35744 ft 451 kts 232°
2026-05-01 13:47 44.74720 -66.30813 35741 ft 452 kts 232°
2026-05-01 13:47 44.71254 -66.38148 35744 ft 452 kts 231°
2026-05-01 13:48 44.67761 -66.45528 35738 ft 453 kts 232°
2026-05-01 13:48 44.64270 -66.52889 35737 ft 453 kts 232°
2026-05-01 13:49 44.60783 -66.60225 35744 ft 454 kts 232°
2026-05-01 13:49 44.57261 -66.67616 35751 ft 454 kts 232°
2026-05-01 13:50 44.53744 -66.74976 35759 ft 455 kts 232°
2026-05-01 13:50 44.50231 -66.82310 35753 ft 456 kts 232°
2026-05-01 13:51 44.46680 -66.89702 35746 ft 458 kts 232°
2026-05-01 13:51 44.43140 -66.97056 35761 ft 458 kts 232°
2026-05-01 13:52 44.40109 -67.04937 35764 ft 467 kts 245°
2026-05-01 13:52 44.38093 -67.13661 35774 ft 470 kts 247°
2026-05-01 13:53 44.36044 -67.22283 35776 ft 469 kts 246°
2026-05-01 13:53 44.32788 -67.35211 35791 ft 470 kts 245°
2026-05-01 13:54 44.30605 -67.43775 35809 ft 471 kts 246°
2026-05-01 13:54 44.28397 -67.52406 35798 ft 471 kts 246°
2026-05-01 13:55 44.26179 -67.61053 35799 ft 472 kts 246°
2026-05-01 13:55 44.23969 -67.69638 35807 ft 472 kts 246°
2026-05-01 13:56 44.21739 -67.78269 35806 ft 472 kts 246°
2026-05-01 13:56 44.19886 -67.85415 35812 ft 472 kts 246°
2026-05-01 13:57 44.17643 -67.94038 35843 ft 472 kts 246°
2026-05-01 13:57 44.15406 -68.02603 35809 ft 472 kts 246°
2026-05-01 13:58 44.13150 -68.11213 35808 ft 472 kts 246°
2026-05-01 13:58 44.10904 -68.19756 35810 ft 472 kts 246°
2026-05-01 13:59 44.08639 -68.28335 35813 ft 471 kts 246°
2026-05-01 13:59 44.06369 -68.36901 35820 ft 471 kts 246°
2026-05-01 14:00 44.04113 -68.45391 35845 ft 471 kts 246°
2026-05-01 14:00 44.01830 -68.53948 35843 ft 471 kts 246°
2026-05-01 14:01 43.99547 -68.62473 35831 ft 470 kts 246°
2026-05-01 14:01 43.97275 -68.70931 35834 ft 470 kts 246°
2026-05-01 14:02 43.94978 -68.79447 35840 ft 470 kts 246°
2026-05-01 14:02 43.92675 -68.87958 35838 ft 469 kts 246°
2026-05-01 14:03 43.90387 -68.96385 35845 ft 469 kts 246°
2026-05-01 14:03 43.88077 -69.04860 35836 ft 469 kts 246°
2026-05-01 14:04 43.85763 -69.13326 35792 ft 468 kts 246°
2026-05-01 14:04 43.84626 -69.17476 35573 ft 462 kts 246°
2026-05-01 14:04 43.83488 -69.21623 35334 ft 460 kts 246°
2026-05-01 14:05 43.82343 -69.25780 35104 ft 460 kts 246°
2026-05-01 14:05 43.81201 -69.29926 34862 ft 460 kts 246°
2026-05-01 14:05 43.80068 -69.34028 34631 ft 461 kts 246°
2026-05-01 14:05 43.78923 -69.38170 34411 ft 460 kts 246°
2026-05-01 14:06 43.77777 -69.42308 34180 ft 458 kts 246°
2026-05-01 14:06 43.76639 -69.46411 33984 ft 455 kts 246°
2026-05-01 14:06 43.75505 -69.50481 33739 ft 452 kts 245°
2026-05-01 14:06 43.74059 -69.54316 33478 ft 446 kts 234°
2026-05-01 14:07 43.72175 -69.57602 33212 ft 441 kts 225°
2026-05-01 14:07 43.69856 -69.60412 32951 ft 435 kts 216°
2026-05-01 14:07 43.67263 -69.62545 32691 ft 432 kts 206°
2026-05-01 14:08 43.61641 -69.65246 32186 ft 427 kts 199°
2026-05-01 14:08 43.58825 -69.66522 31930 ft 424 kts 199°
2026-05-01 14:08 43.56021 -69.67795 31679 ft 421 kts 199°
2026-05-01 14:08 43.53245 -69.69051 31420 ft 419 kts 199°
2026-05-01 14:09 43.50479 -69.70298 31160 ft 417 kts 199°
2026-05-01 14:09 43.47718 -69.71542 30931 ft 414 kts 199°
2026-05-01 14:09 43.44992 -69.72768 30691 ft 411 kts 199°
2026-05-01 14:09 43.42310 -69.73972 30192 ft 410 kts 199°
2026-05-01 14:10 43.39608 -69.75185 29584 ft 407 kts 199°
2026-05-01 14:10 43.36938 -69.76379 29047 ft 399 kts 199°
2026-05-01 14:10 43.34315 -69.77550 28508 ft 392 kts 199°
2026-05-01 14:10 43.31734 -69.78703 27990 ft 386 kts 199°
2026-05-01 14:11 43.29200 -69.79835 27470 ft 381 kts 199°
2026-05-01 14:11 43.24226 -69.82058 26420 ft 370 kts 199°
2026-05-01 14:11 43.21788 -69.83144 25941 ft 365 kts 199°
2026-05-01 14:12 43.19381 -69.84215 25454 ft 361 kts 199°
2026-05-01 14:12 43.17029 -69.85260 24974 ft 357 kts 200°
2026-05-01 14:12 43.14678 -69.86304 24490 ft 354 kts 200°
2026-05-01 14:12 43.12339 -69.87344 24014 ft 352 kts 200°
2026-05-01 14:13 43.10013 -69.88376 23530 ft 350 kts 200°
2026-05-01 14:13 43.08478 -69.89057 23161 ft 349 kts 200°
2026-05-01 14:13 43.05406 -69.90418 22520 ft 343 kts 200°
2026-05-01 14:13 43.03150 -69.91416 22049 ft 339 kts 200°
2026-05-01 14:14 43.00912 -69.92407 21578 ft 336 kts 200°
2026-05-01 14:14 42.98688 -69.93392 21117 ft 335 kts 200°
2026-05-01 14:14 42.96510 -69.94355 20641 ft 332 kts 200°
2026-05-01 14:14 42.94313 -69.95326 20191 ft 330 kts 200°
2026-05-01 14:15 42.92127 -69.96291 19734 ft 328 kts 201°
2026-05-01 14:15 42.89962 -69.97246 19279 ft 326 kts 201°
2026-05-01 14:15 42.87807 -69.98196 18813 ft 324 kts 201°
2026-05-01 14:15 42.85663 -69.99141 18376 ft 322 kts 201°
2026-05-01 14:16 42.83533 -70.00078 17868 ft 320 kts 201°
2026-05-01 14:16 42.81439 -70.01000 17375 ft 320 kts 201°
2026-05-01 14:16 42.79290 -70.01946 16597 ft 327 kts 201°
2026-05-01 14:16 42.77112 -70.02906 16163 ft 336 kts 201°
2026-05-01 14:17 42.74853 -70.03907 15903 ft 338 kts 202°
2026-05-01 14:17 42.72634 -70.04983 15628 ft 336 kts 203°
2026-05-01 14:17 42.70483 -70.06068 15182 ft 335 kts 204°
2026-05-01 14:17 42.68297 -70.07171 14716 ft 330 kts 204°
2026-05-01 14:18 42.66261 -70.08490 14252 ft 319 kts 217°
2026-05-01 14:18 42.64659 -70.10517 13824 ft 311 kts 233°
2026-05-01 14:18 42.63602 -70.13010 13436 ft 303 kts 246°
2026-05-01 14:18 42.63046 -70.14719 13343 ft 293 kts 246°
2026-05-01 14:19 42.61932 -70.17990 13156 ft 277 kts 245°
2026-05-01 14:19 42.61118 -70.20338 12915 ft 273 kts 245°
2026-05-01 14:19 42.60321 -70.22637 12657 ft 271 kts 246°
2026-05-01 14:19 42.59654 -70.25031 12387 ft 270 kts 251°
2026-05-01 14:20 42.59058 -70.27448 12127 ft 271 kts 251°
2026-05-01 14:20 42.57838 -70.32293 11612 ft 269 kts 251°
2026-05-01 14:20 42.57237 -70.34666 11357 ft 269 kts 251°
2026-05-01 14:21 42.56629 -70.37067 11103 ft 268 kts 251°
2026-05-01 14:21 42.56024 -70.39454 10854 ft 267 kts 251°
2026-05-01 14:21 42.55418 -70.41840 10602 ft 267 kts 251°
2026-05-01 14:22 42.54220 -70.46555 10112 ft 266 kts 251°
2026-05-01 14:22 42.53618 -70.48926 9885 ft 265 kts 251°
2026-05-01 14:22 42.53011 -70.51309 9744 ft 266 kts 251°
2026-05-01 14:22 42.52426 -70.53670 9541 ft 267 kts 252°
2026-05-01 14:23 42.51875 -70.56075 9294 ft 266 kts 253°
2026-05-01 14:23 42.51341 -70.58449 9018 ft 259 kts 254°
2026-05-01 14:23 42.50821 -70.60754 8762 ft 252 kts 254°
2026-05-01 14:23 42.50309 -70.63002 8493 ft 247 kts 254°
2026-05-01 14:24 42.49803 -70.65201 8242 ft 241 kts 254°
2026-05-01 14:24 42.49307 -70.67350 7993 ft 236 kts 254°
2026-05-01 14:24 42.48818 -70.69464 7738 ft 238 kts 254°
2026-05-01 14:24 42.48321 -70.71614 7509 ft 238 kts 254°
2026-05-01 14:25 42.47823 -70.73761 7260 ft 239 kts 254°
2026-05-01 14:25 42.47325 -70.75908 7006 ft 239 kts 254°
2026-05-01 14:25 42.46832 -70.78031 6765 ft 235 kts 254°
2026-05-01 14:25 42.46343 -70.80131 6528 ft 234 kts 254°
2026-05-01 14:26 42.45578 -70.82059 6271 ft 239 kts 230°
2026-05-01 14:26 42.42506 -70.83983 5762 ft 250 kts 201°
2026-05-01 14:26 42.40838 -70.84668 5494 ft 249 kts 201°
2026-05-01 14:27 42.39152 -70.85236 5277 ft 249 kts 189°
2026-05-01 14:27 42.37463 -70.85131 5187 ft 246 kts 172°
2026-05-01 14:27 42.35821 -70.84530 5113 ft 243 kts 168°
2026-05-01 14:28 42.32815 -70.82702 4992 ft 241 kts 138°
2026-05-01 14:28 42.31642 -70.81079 4997 ft 241 kts 136°
2026-05-01 14:28 42.30485 -70.79514 5001 ft 237 kts 136°
2026-05-01 14:28 42.29297 -70.77939 4995 ft 240 kts 137°
2026-05-01 14:29 42.28102 -70.76358 4987 ft 242 kts 137°
2026-05-01 14:29 42.26910 -70.74760 4991 ft 241 kts 137°
2026-05-01 14:30 42.23382 -70.70144 3572 ft 237 kts 137°
2026-05-01 14:30 42.21968 -70.68987 3178 ft 235 kts 166°
2026-05-01 14:30 42.20383 -70.68993 2995 ft 225 kts 201°
2026-05-01 14:31 42.18527 -70.71866 2998 ft 205 kts 264°
2026-05-01 14:31 42.18331 -70.73774 2973 ft 205 kts 268°
2026-05-01 14:31 42.18496 -70.75652 2993 ft 202 kts 292°
2026-05-01 14:31 42.19208 -70.77261 2999 ft 199 kts 309°
2026-05-01 14:32 42.20135 -70.78650 2987 ft 199 kts 315°
2026-05-01 14:32 42.21108 -70.79934 2990 ft 197 kts 315°
2026-05-01 14:32 42.22082 -70.81242 2989 ft 197 kts 315°
2026-05-01 14:32 42.23060 -70.82547 2992 ft 198 kts 315°
2026-05-01 14:33 42.24023 -70.83836 2995 ft 199 kts 315°
2026-05-01 14:33 42.24957 -70.85083 2972 ft 175 kts 315°
2026-05-01 14:33 42.25779 -70.86184 2771 ft 160 kts 316°
2026-05-01 14:33 42.26559 -70.87231 2549 ft 155 kts 315°
2026-05-01 14:34 42.27322 -70.88250 2319 ft 156 kts 315°
2026-05-01 14:34 42.28102 -70.89298 2109 ft 159 kts 314°
2026-05-01 14:34 42.28874 -70.90327 1895 ft 156 kts 314°
2026-05-01 14:34 42.29639 -70.91354 1683 ft 151 kts 314°
2026-05-01 14:35 42.30331 -70.92276 1480 ft 132 kts 314°
2026-05-01 14:35 42.30965 -70.93132 1308 ft 124 kts 314°
2026-05-01 14:35 42.31588 -70.93965 1127 ft 124 kts 314°
2026-05-01 14:35 42.32191 -70.94772 963 ft 121 kts 313°
2026-05-01 14:36 42.32792 -70.95583 798 ft 125 kts 314°
2026-05-01 14:36 42.33409 -70.96401 635 ft 119 kts 313°
2026-05-01 14:36 42.33989 -70.97160 398 ft 120 kts 313°
2026-05-01 14:36 42.34568 -70.97948 270 ft 115 kts 311°
2026-05-01 14:37 42.35139 -70.98715 141 ft 117 kts 310°
2026-05-01 14:37 42.35720 -70.99505 34 ft 116 kts 312°
2026-05-01 14:37 42.36166 -71.00106 31 ft 72 kts 316°
2026-05-01 14:37 42.36451 -71.00481 34 ft 44 kts 315°
2026-05-01 14:38 42.36621 -71.00709 36 ft 28 kts 315°
2026-05-01 14:38 42.36747 -71.00876 33 ft 24 kts 315°
2026-05-01 14:38 42.36853 -71.01020 32 ft 20 kts 315°
2026-05-01 14:38 42.36928 -71.01124 30 ft 8 kts 302°
2026-05-01 14:39 42.36934 -71.01196 30 ft 9 kts 260°
2026-05-01 14:39 42.36921 -71.01274 30 ft 7 kts 270°
2026-05-01 14:39 42.36939 -71.01338 31 ft 8 kts 306°
2026-05-01 14:39 42.36990 -71.01412 31 ft 14 kts 315°
2026-05-01 14:40 42.37055 -71.01498 32 ft 13 kts 315°
2026-05-01 14:40 42.37111 -71.01572 34 ft 10 kts 315°
2026-05-01 14:40 42.37164 -71.01644 34 ft 13 kts 315°
2026-05-01 14:40 42.37236 -71.01740 34 ft 15 kts 315°
2026-05-01 14:41 42.37295 -71.01840 34 ft 11 kts 273°
2026-05-01 14:41 42.37254 -71.01926 34 ft 12 kts 231°
2026-05-01 14:41 42.37225 -71.02033 33 ft 10 kts 259°
2026-05-01 14:41 42.37211 -71.02075 31 ft 5 kts 212°
2026-05-01 14:42 42.37172 -71.02078 31 ft 5 kts 164°
2026-05-01 14:42 42.37156 -71.02072 31 ft 3 kts 166°
2026-05-01 14:42 42.37155 -71.02072 31 ft 0 kts 166°